Flag for Germany Weather past 2 weeks in Schwedt/Oder, Brandenburg, Germany

Now
68 °F

Scattered clouds.


Feels Like: 68 °F
Forecast: 53 / 76 °F
Wind: 7 mph from West

Location: Szczecin Airport

Current Time: Aug 28, 2015 at 5:27:07 PM

Latest Report: Aug 28, 2015 at 5:00 PM


Visibility: N/A

Pressure: 30.07 "Hg

Humidity: 60%

Dew point: 54 °F

Location of Schwedt/OderLocation

Historic Weather in Schwedt/Oder — Graph

°F

Schwedt/Oder temperature yesterday

Maximum temperature yesterday: 79 °F (at 12:30 PM)
Minimum temperature yesterday: 61 °F (at 2:30 AM)
Average temperature yesterday: 69 °F

Past Weeks' High & Low Weather Summary

 TemperatureHumidityPressure
High88 °F (Aug 14, 4:30 PM)100% (Aug 16, 1:00 AM)30.36 "Hg (Aug 16, 1:00 AM)
Low50 °F (Aug 22, 4:30 AM)23% (Aug 19, 5:30 PM)29.71 "Hg (Aug 15, 8:00 AM)
Average70 °F56%29.99 "Hg
* Reported Aug 13 4:00 PM — Aug 28 4:00 PM, Schwedt/Oder, Weather by CustomWeather, © 2015

Note: Actual official high and low records may vary slightly from our data, if they occured in-between our weather recording intervals... More about our weather records

Advertising

Schwedt/Oder weather history for previous 24 hours

 ConditionsComfort  
Time TempWeatherWind HumidityBarometerVisibility
4:00 PM
Fri, Aug 28
66 °FPassing clouds.8 mph64%30.07 "HgN/A
3:30 PM66 °FScattered clouds.9 mph64%30.04 "HgN/A
3:00 PM66 °FPartly sunny.8 mph64%30.04 "HgN/A
2:30 PM64 °FBroken clouds.10 mph68%30.04 "HgN/A
2:00 PM64 °FBroken clouds.8 mph73%30.04 "HgN/A
1:30 PM64 °FBroken clouds.7 mph73%30.04 "HgN/A
1:00 PM64 °FBroken clouds.10 mph68%30.01 "HgN/A
12:30 PM63 °FPartly sunny.9 mph77%30.01 "HgN/A
12:00 PM61 °FPartly sunny.10 mph83%30.01 "HgN/A
11:30 AM61 °FPartly sunny.9 mph88%29.98 "HgN/A
11:00 AM61 °FPartly sunny.9 mph83%29.98 "HgN/A
10:30 AM61 °FBroken clouds.10 mph88%29.98 "HgN/A
10:00 AM61 °FBroken clouds.8 mph88%29.95 "HgN/A
9:30 AM59 °FScattered clouds.6 mph94%29.95 "HgN/A
9:00 AM59 °FPartly sunny.6 mph94%29.92 "HgN/A
8:30 AM57 °FPartly sunny.3 mph94%29.92 "HgN/A
8:00 AM57 °FLight rain. Broken clouds.3 mph100%29.92 "HgN/A
7:30 AM59 °FLight rain. Broken clouds.7 mph94%29.89 "HgN/A
7:00 AM59 °FLight rain. Partly cloudy.9 mph94%29.89 "Hg5 mi
6:30 AM61 °FLight rain. Partly cloudy.12 mph94%29.86 "Hg5 mi
6:00 AM61 °FLight rain. Fog.5 mph100%29.86 "Hg3 mi
5:00 AM61 °FLight rain. Partly cloudy.3 mph100%29.86 "Hg4 mi
4:30 AM63 °FLight rain. Partly cloudy.2 mph94%29.83 "Hg4 mi
4:00 AM63 °FLight rain. Passing clouds.2 mph94%29.83 "Hg4 mi
3:30 AM63 °FLight rain. Passing clouds.2 mph94%29.83 "Hg4 mi
3:00 AM63 °FLight rain. Passing clouds.2 mph94%29.83 "Hg4 mi
2:30 AM63 °FLight rain. Passing clouds.No wind94%29.83 "Hg5 mi
2:00 AM63 °FLight rain. Clear.No wind94%29.83 "HgN/A
1:30 AM63 °FLight rain. Clear.2 mph94%29.83 "HgN/A
1:00 AM63 °FLight rain. Clear.5 mph94%29.83 "HgN/A
12:00 AM63 °FPassing clouds.3 mph94%29.86 "HgN/A
11:30 PM
Thu, Aug 27
64 °FLight rain. Clear.5 mph88%29.83 "HgN/A
11:00 PM64 °FLight rain. Clear.3 mph88%29.83 "HgN/A
10:30 PM64 °FLight rain. Clear.5 mph88%29.83 "HgN/A
10:00 PM66 °FLight rain. Clear.5 mph83%29.83 "HgN/A
9:30 PM66 °FLight rain. Clear.5 mph83%29.83 "HgN/A
9:00 PM66 °FLight rain. Clear.5 mph83%29.83 "HgN/A
8:30 PM68 °FSunny.3 mph78%29.83 "Hg10 mi
8:00 PM68 °FLight rain. Clear.3 mph78%29.83 "HgN/A
7:30 PM70 °FLight rain. Clear.3 mph69%29.86 "HgN/A
7:00 PM70 °FLight rain. Clear.2 mph69%29.83 "HgN/A
6:30 PM72 °FLight rain. Clear.5 mph65%29.86 "HgN/A
6:00 PM73 °FLight rain. Clear.3 mph57%29.86 "HgN/A
5:30 PM75 °FSunny.1 mph54%29.86 "Hg10 mi
5:00 PM75 °FSunny.2 mph50%29.86 "Hg10 mi
Weather by CustomWeather, © 2015

See weather overviewHow to use our weather pages